Regional Weather Roundup
Issued by NWS

Home | Current Version | Previous Version | Graphics & Text | Print | Product List | Glossary Off
Versions: 1 2 3 4 5 6 7 8 9 10 11 12 13 14 15 16 17 18 19 20 21 22 23 24 25 26 27 28 29 30 31 32 33 34 35 36 37 38 39 40 41 42 43 44 45 46 47 48 49 50

000
ASUS43 KDMX 190507
RWRIA

WEATHER ROUNDUP FOR IOWA
NATIONAL WEATHER SERVICE DES MOINES IA
1200 AM CDT SUN APR 19 2015

NOTE: "FAIR" INDICATES FEW OR NO CLOUDS BELOW 12,000 FEET WITH NO
SIGNIFICANT WEATHER AND/OR OBSTRUCTIONS TO VISIBILITY.

* - THESE STATIONS ARE NOT NWS STATIONS...THUS NOT UNDER NWS
QUALITY CONTROL.  THEY ALSO DO NOT REPORT WEATHER SUCH
AS PRECIPITATION OR FOG.

IAZ001>003-012>014-020>022-031>034-043>046-190600-
   NORTHWEST IOWA

CITY           SKY/WX    TMP DP  RH WIND       PRES   REMARKS
CARROLL *      LGT RAIN  57  57 100 CALM      29.82S
CHEROKEE *     CLOUDY    55  55 100 SW3       29.82R
DENISON *      CLOUDY    55  55 100 CALM      29.81S FOG
LE MARS *      CLOUDY    57  57 100 SE8       29.81S
ORANGE CITY *  MOCLDY   N/A N/A N/A CALM      29.81S
SHELDON *      CLOUDY    55  55 100 SE8       29.79F
SIOUX CITY     CLOUDY    55  52  89 E5        29.80F
SPENCER        LGT RAIN  55  53  93 CALM      29.81F FOG
STORM LAKE *   FOG       55  55 100 S3        29.83S VSB 1/2
$$

IAZ055>058-069>071-079>083-090>094-190600-
   SOUTHWEST IOWA

CITY           SKY/WX    TMP DP  RH WIND       PRES   REMARKS
ATLANTIC *     CLOUDY    57  57 100 CALM      29.82S
AUDUBON *      CLOUDY    57  54  88 CALM      29.83S FOG
CLARINDA *     CLOUDY    57  57 100 CALM      29.83F
COUNCIL BLFS * MOCLDY    55  55 100 SE3       29.81F
CRESTON *      CLOUDY    57  57 100 S7        29.83S FOG
HARLAN  *      FOG       57  57 100 CALM      29.85S VSB 1
LAMONI         FOG       59  58  96 S6        29.82S VSB 1/4
RED OAK *      FOG       55  55 100 CALM      29.82S VSB 3/4
SHENANDOAH *   FOG       54  54 100 CALM      29.82S VSB 1/2
$$

IAZ047>049-059>061-072>074-084-190600-
   CENTRAL IOWA

CITY           SKY/WX    TMP DP  RH WIND       PRES   REMARKS
AMES           LGT RAIN  58  55  90 E9        29.82S
ANKENY *       CLOUDY    59  57  94 SE8G14    29.82S
CHARITON *     CLOUDY    57  55  94 S5        29.84R
DES MOINES     CLOUDY    60  57  89 SE9       29.83R
GRINNELL*      CLOUDY    57  55  94 E7        29.83F
KNOXVILLE *    CLOUDY    59  55  88 SE6       29.81F
MARSHALLTOWN   CLOUDY    57  55  93 E9        29.82F
PELLA *        CLOUDY    58  58 100 SE6       29.83F
PERRY *        FOG       59  59 100 SE5       29.82R VSB 3/4
$$

IAZ004>006-015-016-023>025-035-036-190600-
   NORTH CENTRAL IOWA

CITY           SKY/WX    TMP DP  RH WIND       PRES   REMARKS
ALGONA *       CLOUDY    55  55 100 E13       29.81S
CLARION *      CLOUDY    57  57 100 E16G23    29.81S
ESTHERVILLE    LGT RAIN  55  54  96 SE12      29.80F FOG
FORT DODGE *   CLOUDY    57  54  88 E12       29.82S
MASON CITY     CLOUDY    57  32  38 SE14      29.84F
FOREST CITY *  CLOUDY    54  54 100 E12G17    29.82F
IOWA FALLS *   MOCLDY    57  54  88 E14       29.84S
$$

IAZ007>011-017>019-026>030-037>042-050>054-066-190600-
   NORTHEAST IOWA

CITY           SKY/WX    TMP DP  RH WIND       PRES   REMARKS
CEDAR RAPIDS   CLOUDY    58  54  86 E13       29.84F
CHARLES CITY * CLOUDY    57  55  94 E17G23    29.85F
CLINTON *      MOCLDY    55  36  47 E9        29.93S
DECORAH *      LGT RAIN  52  46  82 SE13      29.94S
DUBUQUE        MOCLDY    57  34  41 E17       29.91F
MONTICELLO *   CLEAR     59  45  58 E8        29.90F
OELWEIN *      DRIZZLE   55  50  82 E14       29.86F
WATERLOO       CLOUDY    57  53  86 E10       29.84F
$$

IAZ064-065-067-068-078-190600-
   EAST CENTRAL IOWA

CITY           SKY/WX    TMP DP  RH WIND       PRES   REMARKS
DAVENPORT      MOCLDY    57  39  51 E15       29.90F
IOWA CITY      CLOUDY    59  56  89 NE8       29.85F
MT. PLEASANT * CLOUDY    59  57  94 E8        29.85S
MUSCATINE *    CLEAR     64  54  68 E7        29.85F
QUAD CITIES    CLOUDY    58  41  53 E13       29.88F
$$

IAZ062-063-075>077-085>089-095>099-190600-
   SOUTHEAST IOWA

CITY           SKY/WX    TMP DP  RH WIND       PRES   REMARKS
BURLINGTON     CLOUDY    65  54  67 E5        29.84F
FAIRFIELD *    MOCLDY    59  55  88 SE3       29.83F
FORT MADISON * CLEAR     63  57  82 E3        29.84F
KEOKUK *       PTCLDY    63  57  82 S5        29.84S
OSKALOOSA *    MOCLDY    57  55  94 CALM      29.83F
CENTERVILLE *  PTCLDY    57  57 100 E7        29.84F
OTTUMWA        CLOUDY    57  56  96 S3        29.82F
WASHINGTON *   CLEAR     59  59 100 E9        29.84F
$$

ABBREVIATIONS USED IN REMARKS
   TC - TEMPERATURES IN CELSIUS
  WCI - WIND CHILL INDEX
   HX - HEAT INDEX
  VSB - VISIBILITY
$$



USA.gov is the U.S. government's official web portal to all federal, state and local government web resources and services.